#Datum;Uhrzeit;WR;Pac;DaySum;Status;WR;Pac;DaySum;Status;Pdc1;Udc;Temp;WR;Pac;DaySum;Status;Pdc1;Udc;Temp;WR;Pac;DaySum;Status;Pdc1;Udc;Temp;WR;Pac;DaySum;Status;Pdc1;Pdc2;Udc1;Udc2;Temp;WR;Pac;DaySum;Status;Pdc1;Pdc2;Udc1;Udc2;Temp;WR;Pac;DaySum;Status;Pdc1;Udc;Temp;WR;Pac;DaySum;Status;Pdc1;Udc;Temp;WR;Pac;DaySum;Status;Pdc1;Udc;Temp
22.06.20;23:55:00;1;266;9667;0;2;0;20130;0;0;0;0;3;0;13061;0;0;0;0;4;0;18049;0;0;0;0;5;0;47508;0;0;0;0;0;0;6;0;36217;0;0;0;0;0;0;7;0;23152;0;0;0;0;8;0;11387;0;0;0;0;9;0;12680;0;0;0;0
22.06.20;23:50:00;1;300;9645;0;2;0;20130;0;0;0;0;3;0;13061;0;0;0;0;4;0;18049;0;0;0;0;5;0;47508;0;0;0;0;0;0;6;0;36217;0;0;0;0;0;0;7;0;23152;0;0;0;0;8;0;11387;0;0;0;0;9;0;12680;0;0;0;0
22.06.20;23:45:00;1;289;9620;0;2;0;20130;0;0;0;0;3;0;13061;0;0;0;0;4;0;18049;0;0;0;0;5;0;47508;0;0;0;0;0;0;6;0;36217;0;0;0;0;0;0;7;0;23152;0;0;0;0;8;0;11387;0;0;0;0;9;0;12680;0;0;0;0
22.06.20;23:40:00;1;344;9595;0;2;0;20130;0;0;0;0;3;0;13061;0;0;0;0;4;0;18049;0;0;0;0;5;0;47508;0;0;0;0;0;0;6;0;36217;0;0;0;0;0;0;7;0;23152;0;0;0;0;8;0;11387;0;0;0;0;9;0;12680;0;0;0;0
22.06.20;23:35:00;1;252;9568;0;2;0;20130;0;0;0;0;3;0;13061;0;0;0;0;4;0;18049;0;0;0;0;5;0;47508;0;0;0;0;0;0;6;0;36217;0;0;0;0;0;0;7;0;23152;0;0;0;0;8;0;11387;0;0;0;0;9;0;12680;0;0;0;0
22.06.20;23:30:00;1;259;9546;0;2;0;20130;0;0;0;0;3;0;13061;0;0;0;0;4;0;18049;0;0;0;0;5;0;47508;0;0;0;0;0;0;6;0;36217;0;0;0;0;0;0;7;0;23152;0;0;0;0;8;0;11387;0;0;0;0;9;0;12680;0;0;0;0
22.06.20;23:25:00;1;259;9524;0;2;0;20130;0;0;0;0;3;0;13061;0;0;0;0;4;0;18049;0;0;0;0;5;0;47508;0;0;0;0;0;0;6;0;36217;0;0;0;0;0;0;7;0;23152;0;0;0;0;8;0;11387;0;0;0;0;9;0;12680;0;0;0;0
22.06.20;23:20:00;1;261;9503;0;2;0;20130;0;0;0;0;3;0;13061;0;0;0;0;4;0;18049;0;0;0;0;5;0;47508;0;0;0;0;0;0;6;0;36217;0;0;0;0;0;0;7;0;23152;0;0;0;0;8;0;11387;0;0;0;0;9;0;12680;0;0;0;0
22.06.20;23:15:00;1;244;9481;0;2;0;20130;0;0;0;0;3;0;13061;0;0;0;0;4;0;18049;0;0;0;0;5;0;47508;0;0;0;0;0;0;6;0;36217;0;0;0;0;0;0;7;0;23152;0;0;0;0;8;0;11387;0;0;0;0;9;0;12680;0;0;0;0
22.06.20;23:10:00;1;245;9461;0;2;0;20130;0;0;0;0;3;0;13061;0;0;0;0;4;0;18049;0;0;0;0;5;0;47508;0;0;0;0;0;0;6;0;36217;0;0;0;0;0;0;7;0;23152;0;0;0;0;8;0;11387;0;0;0;0;9;0;12680;0;0;0;0
22.06.20;23:05:00;1;220;9440;0;2;0;20130;0;0;0;0;3;0;13061;0;0;0;0;4;0;18049;0;0;0;0;5;0;47508;0;0;0;0;0;0;6;0;36217;0;0;0;0;0;0;7;0;23152;0;0;0;0;8;0;11387;0;0;0;0;9;0;12680;0;0;0;0
22.06.20;23:00:00;1;239;9422;0;2;0;20130;0;0;0;0;3;0;13061;0;0;0;0;4;0;18049;0;0;0;0;5;0;47508;0;0;0;0;0;0;6;0;36217;0;0;0;0;0;0;7;0;23152;0;0;0;0;8;0;11387;0;0;0;0;9;0;12680;0;0;0;0
22.06.20;22:55:00;1;265;9401;0;2;0;20130;0;0;0;0;3;0;13061;0;0;0;0;4;0;18049;0;0;0;0;5;0;47508;2;0;0;0;0;0;6;0;36217;2;0;0;0;0;0;7;0;23152;0;0;0;0;8;0;11387;0;0;0;0;9;0;12680;0;0;0;0
22.06.20;22:50:00;1;291;9379;0;2;0;20130;0;0;0;0;3;0;13061;0;0;0;0;4;0;18049;0;0;0;0;5;0;47508;2;0;0;0;0;0;6;0;36217;2;0;0;0;0;0;7;0;23152;0;0;0;0;8;0;11387;0;0;0;0;9;0;12680;0;0;0;0
22.06.20;22:45:00;1;402;9354;0;2;0;20130;0;0;0;0;3;0;13061;0;0;0;0;4;0;18049;0;0;0;0;5;0;47508;2;0;0;0;0;0;6;0;36217;2;0;0;0;0;0;7;0;23152;0;0;0;0;8;0;11387;0;0;0;0;9;0;12680;0;0;0;0
22.06.20;22:40:00;1;365;9320;0;2;0;20130;0;0;0;0;3;0;13061;0;0;0;0;4;0;18049;0;0;0;0;5;0;47508;2;0;0;0;0;0;6;0;36217;2;0;0;0;0;0;7;0;23152;0;0;0;0;8;0;11387;0;0;0;0;9;0;12680;0;0;0;0
22.06.20;22:35:00;1;434;9293;0;2;0;20130;0;0;0;0;3;0;13061;0;0;0;0;4;0;18049;0;0;0;0;5;0;47508;2;0;0;0;0;0;6;0;36217;2;0;0;0;0;0;7;0;23152;0;0;0;0;8;0;11387;0;0;0;0;9;0;12680;0;0;0;0
22.06.20;22:30:00;1;462;9256;0;2;0;20130;0;0;0;0;3;0;13061;0;0;0;0;4;0;18049;0;0;0;0;5;0;47508;2;0;0;0;0;0;6;0;36217;2;0;0;0;0;0;7;0;23152;0;0;0;0;8;0;11387;0;0;0;0;9;0;12680;0;0;0;0
22.06.20;22:25:00;1;506;9217;0;2;0;20130;0;0;0;0;3;0;13061;0;0;0;0;4;0;18049;0;0;0;0;5;0;47508;2;0;0;0;0;0;6;0;36217;2;0;0;0;0;0;7;0;23152;0;0;0;0;8;0;11387;0;0;0;0;9;0;12680;0;0;0;0
22.06.20;22:20:00;1;455;9174;0;2;0;20130;0;0;0;0;3;0;13061;0;0;0;0;4;0;18049;0;0;0;0;5;0;47508;2;0;0;0;0;0;6;0;36217;2;0;0;0;0;0;7;0;23152;0;0;0;0;8;0;11387;0;0;0;0;9;0;12680;0;0;0;0
22.06.20;22:15:00;1;482;9136;0;2;0;20130;0;0;0;0;3;0;13061;0;0;0;0;4;0;18049;0;0;0;0;5;0;47508;2;0;0;0;0;0;6;0;36217;2;0;0;0;0;0;7;0;23152;0;0;0;0;8;0;11387;0;0;0;0;9;0;12680;0;0;0;0
22.06.20;22:10:00;1;437;9095;0;2;0;20130;0;0;0;0;3;0;13061;0;0;0;0;4;0;18049;0;0;0;0;5;0;47508;2;0;0;0;0;0;6;0;36217;2;0;0;0;0;0;7;0;23152;0;0;0;0;8;0;11387;0;0;0;0;9;0;12680;0;0;0;0
22.06.20;22:05:00;1;398;9059;0;2;0;20130;0;0;0;0;3;0;13061;0;0;0;0;4;0;18049;0;0;0;0;5;0;47508;2;0;0;0;0;0;6;0;36217;2;0;0;0;0;0;7;0;23152;0;0;0;0;8;0;11387;0;0;0;0;9;0;12680;0;0;0;0
22.06.20;22:00:00;1;433;9026;0;2;0;20130;0;0;0;0;3;0;13061;0;0;0;0;4;0;18049;0;0;0;0;5;0;47508;2;0;0;0;0;0;6;0;36217;2;0;0;0;0;0;7;0;23152;0;0;0;0;8;0;11387;0;0;0;0;9;0;12680;0;0;0;0
22.06.20;21:55:00;1;438;8989;0;2;0;20130;0;0;0;0;3;0;13061;0;0;0;0;4;0;18049;0;0;0;0;5;0;47508;2;0;0;0;0;0;6;0;36217;2;0;0;0;0;0;7;0;23152;0;0;0;0;8;0;11387;0;0;0;0;9;0;12680;0;0;0;0
22.06.20;21:50:00;1;458;8953;0;2;0;20130;0;0;0;0;3;0;13061;0;0;0;0;4;0;18049;0;0;0;0;5;0;47508;2;0;0;0;0;0;6;0;36217;2;0;0;0;0;0;7;0;23152;0;0;0;0;8;0;11387;0;0;0;0;9;0;12680;0;0;0;0
22.06.20;21:45:00;1;507;8913;0;2;0;20130;0;0;0;0;3;0;13061;0;0;0;0;4;0;18049;0;0;0;0;5;0;47508;2;0;0;0;0;0;6;0;36217;2;0;0;0;0;0;7;0;23152;0;0;0;0;8;0;11387;0;0;0;0;9;0;12680;0;0;0;0
22.06.20;21:40:00;1;596;8871;0;2;0;20130;0;0;0;0;3;0;13061;0;0;41;4;4;0;18049;0;0;0;0;5;0;47508;2;0;0;0;0;0;6;0;36217;1;0;0;0;0;0;7;0;23152;0;0;0;0;8;0;11387;0;0;0;0;9;0;12680;0;0;0;0
22.06.20;21:35:00;1;430;8827;0;2;0;20130;0;0;190;17;3;0;13061;6;0;297;27;4;0;18049;0;0;49;20;5;0;47508;2;0;0;0;0;0;6;0;36217;2;0;0;0;0;0;7;0;23152;0;0;0;0;8;0;11387;0;0;0;0;9;0;12680;0;0;0;0
22.06.20;21:30:00;1;358;8791;0;2;0;20130;6;0;300;25;3;0;13061;6;0;359;27;4;0;18049;1;0;101;29;5;0;47508;2;0;0;61;60;7;6;0;36217;2;0;0;0;0;5;7;0;23152;0;0;0;0;8;0;11387;0;0;0;0;9;0;12680;0;0;0;0
22.06.20;21:25:00;1;390;8761;0;2;0;20130;6;0;329;25;3;0;13061;6;0;403;28;4;0;18049;1;0;136;29;5;0;47508;2;0;0;300;299;37;6;0;36217;23;9;0;383;179;35;7;0;23152;0;0;225;23;8;0;11387;0;0;225;22;9;0;12680;6;0;289;24
22.06.20;21:20:00;1;457;8728;0;2;0;20130;6;0;348;26;3;0;13061;3;5;405;28;4;0;18049;1;0;165;30;5;0;47508;23;0;0;367;396;37;6;0;36217;23;10;0;180;480;36;7;0;23152;6;0;315;28;8;0;11387;6;0;316;27;9;0;12680;6;0;334;24
22.06.20;21:15:00;1;463;8690;0;2;0;20130;6;0;364;26;3;1;13061;6;2;443;28;4;0;18049;1;0;190;30;5;0;47508;26;0;1;386;533;37;6;0;36217;23;8;2;537;180;36;7;0;23152;6;0;362;28;8;0;11387;6;0;364;27;9;0;12680;6;0;390;24
22.06.20;21:10:00;1;416;8652;0;2;0;20130;6;0;377;27;3;2;13061;6;5;455;29;4;0;18049;1;0;208;31;5;10;47508;1;0;0;386;614;38;6;0;36217;23;10;0;182;533;37;7;0;23152;6;0;397;29;8;0;11387;6;0;399;27;9;1;12680;6;2;413;25
22.06.20;21:05:00;1;407;8617;0;2;0;20130;6;0;385;27;3;1;13061;6;4;468;29;4;0;18049;1;0;216;31;5;21;47507;8;0;2;390;619;38;6;0;36217;23;13;0;182;545;37;7;1;23152;6;3;398;29;8;0;11387;6;0;414;27;9;0;12680;6;1;432;25
22.06.20;21:00:00;1;342;8584;0;2;0;20130;6;0;394;28;3;2;13061;6;6;478;29;4;2;18049;3;2;200;31;5;76;47505;4;0;10;362;574;39;6;19;36217;1;14;6;522;500;38;7;2;23152;6;4;425;29;8;0;11387;6;1;428;28;9;2;12680;6;3;463;25
22.06.20;20:55:00;1;346;8554;0;2;27;20130;6;50;369;28;3;2;13060;6;7;496;29;4;0;18049;3;0;199;31;5;101;47499;4;5;25;362;574;39;6;64;36217;4;35;30;450;421;39;7;1;23151;6;6;444;29;8;0;11387;6;3;429;28;9;1;12679;6;3;488;25
22.06.20;20:50:00;1;442;8525;0;2;74;20128;4;110;356;29;3;6;13060;3;12;508;30;4;8;18049;3;9;199;32;5;127;47490;4;19;37;362;574;39;6;78;36217;4;32;24;450;421;39;7;5;23151;6;18;427;30;8;1;11387;6;3;450;28;9;1;12679;4;5;495;26
22.06.20;20:45:00;1;394;8489;0;2;105;20121;4;142;358;29;3;60;13060;4;95;424;30;4;15;18048;3;15;198;32;5;150;47479;4;33;47;362;574;39;6;96;36217;4;53;44;450;421;39;7;29;23151;6;55;372;30;8;1;11387;6;4;463;28;9;5;12679;6;14;483;26
22.06.20;20:40:00;1;398;8455;0;2;85;20113;4;123;357;30;3;10;13054;6;18;519;30;4;24;18047;3;25;198;32;5;171;47466;4;41;58;362;574;39;6;85;36217;4;51;43;360;336;31;7;41;23149;4;82;399;30;8;2;11387;4;5;464;28;9;4;12679;6;9;508;26
22.06.20;20:35:00;1;272;8422;0;2;106;20105;4;144;352;30;3;57;13053;4;97;448;31;4;37;18045;3;39;197;32;5;199;47452;4;66;69;362;574;39;6;130;36214;4;71;62;450;420;39;7;52;23145;4;89;438;30;8;1;11387;3;7;471;29;9;5;12678;6;9;520;26
22.06.20;20:30:00;1;306;8400;0;2;255;20097;4;299;363;31;3;151;13048;4;193;462;32;4;61;18042;3;64;198;32;5;235;47435;4;81;85;362;574;39;6;151;36203;4;77;65;450;420;39;7;89;23141;4;118;394;30;8;6;11386;6;11;473;29;9;15;12678;6;26;490;27
22.06.20;20:25:00;1;310;8374;0;2;388;20076;4;437;377;31;3;238;13036;4;285;463;32;4;81;18037;3;83;199;32;5;268;47415;4;95;102;362;574;39;6;174;36190;4;100;84;450;420;39;7;108;23134;4;142;382;30;8;19;11386;6;32;431;29;9;37;12677;6;59;396;27
22.06.20;20:20:00;1;315;8348;0;2;471;20043;4;524;381;32;3;292;13016;4;338;472;32;4;100;18030;3;104;209;33;5;292;47393;4;114;112;362;574;39;6;191;36175;4;105;92;450;420;39;7;126;23125;4;162;394;30;8;38;11384;4;80;385;29;9;58;12674;4;87;422;27
22.06.20;20:15:00;1;272;8324;0;2;570;20004;4;627;382;32;3;357;12992;4;407;475;32;4;125;18021;5;130;214;33;5;328;47368;4;135;132;362;574;39;6;216;36159;4;113;97;450;421;39;7;149;23114;4;188;399;31;8;49;11381;4;91;428;29;9;72;12669;4;103;447;28
22.06.20;20:10:00;1;320;8301;0;2;675;19957;4;735;381;33;3;418;12962;4;472;471;33;4;150;18011;5;156;215;33;5;368;47340;4;155;155;362;574;39;6;239;36141;4;112;105;450;421;39;7;188;23102;4;227;416;31;8;75;11377;4;108;405;29;9;84;12663;4;121;475;28
22.06.20;20:05:00;1;289;8276;0;2;769;19901;4;829;384;33;3;474;12927;4;528;483;33;4;185;17998;5;192;217;33;5;398;47310;4;166;171;362;574;39;6;264;36120;4;149;132;450;420;39;7;220;23086;4;265;438;31;8;89;11371;4;126;389;29;9;101;12656;4;137;484;28
22.06.20;20:00:00;1;274;8252;0;2;726;19837;4;787;373;33;3;452;12888;4;507;462;33;4;174;17983;5;181;213;33;5;404;47276;4;171;168;362;574;39;6;268;36098;4;142;128;450;420;39;7;238;23068;4;290;434;31;8;106;11364;4;143;430;30;9;106;12648;4;141;478;28
22.06.20;19:55:00;1;469;8229;0;2;868;19778;4;933;377;34;3;522;12851;4;579;465;33;4;199;17969;5;208;219;34;5;453;47242;4;194;188;377;592;39;6;313;36076;4;160;141;503;447;39;7;280;23048;4;322;442;31;8;113;11355;4;154;454;30;9;119;12639;4;152;479;28
22.06.20;19:50:00;1;222;8192;0;2;943;19706;4;1011;387;34;3;563;12808;4;619;454;33;4;241;17952;5;250;220;34;5;513;47204;4;232;215;387;596;40;6;380;36049;4;190;184;531;522;39;7;324;23025;4;359;438;31;8;141;11345;4;181;437;30;9;142;12629;4;176;490;28
22.06.20;19:45:00;1;243;8173;0;2;855;19628;4;921;374;34;3;516;12761;4;569;446;33;4;273;17932;5;284;224;34;5;557;47161;4;254;236;382;603;40;6;410;36017;4;206;193;530;518;39;7;425;22998;4;471;440;31;8;200;11334;4;239;444;30;9;172;12617;4;208;487;29
22.06.20;19:40:00;1;251;8153;0;2;1267;19556;4;1350;385;35;3;725;12718;4;786;448;34;4;372;17909;5;387;233;34;5;673;47114;4;305;275;390;609;40;6;499;35983;4;259;254;547;523;39;7;581;22963;4;642;443;31;8;282;11317;4;325;456;30;9;233;12603;4;274;517;29
22.06.20;19:35:00;1;269;8132;0;2;1536;19453;4;1627;388;35;3;875;12659;4;940;442;34;4;465;17879;5;484;240;35;5;775;47057;4;361;326;388;618;40;6;573;35940;4;302;294;550;524;39;7;749;22914;4;804;456;31;8;377;11294;4;417;448;30;9;285;12584;4;332;523;29
22.06.20;19:30:00;1;229;8109;0;2;1637;19325;4;1731;386;35;3;923;12586;4;991;442;34;4;498;17840;5;519;208;35;5;799;46992;4;378;335;389;620;40;6;586;35892;4;281;273;543;528;39;7;830;22852;4;896;459;31;8;412;11263;4;455;462;30;9;297;12560;4;345;540;29
22.06.20;19:25:00;1;294;8090;0;2;1357;19188;4;1440;376;34;3;803;12509;4;867;455;33;4;559;17798;5;582;212;35;5;699;46926;4;331;287;387;616;40;6;526;35843;4;274;264;546;526;39;7;592;22768;0;640;373;26;8;365;11229;4;407;448;30;9;252;12535;4;295;520;29
22.06.20;19:20:00;1;283;8065;0;2;583;19073;4;642;373;34;3;350;12441;4;399;448;33;4;401;17751;5;418;223;35;5;672;46868;4;306;284;382;613;40;6;496;35800;4;271;249;541;526;39;7;437;22721;4;489;445;32;8;200;11198;4;240;435;30;9;217;12514;4;254;440;29
22.06.20;19:15:00;1;438;8039;0;2;1714;19024;4;1811;389;35;3;987;12412;4;1056;443;34;4;1070;17718;5;1115;220;35;5;815;46811;4;383;341;389;624;40;6;617;35757;4;332;312;558;535;39;7;1032;22685;4;1101;456;32;8;510;11181;4;564;464;30;9;320;12496;4;356;360;30
22.06.20;19:10:00;1;776;8005;0;2;1654;18881;4;1750;380;34;3;932;12329;4;998;449;34;4;1087;17629;5;1132;231;36;5;860;46742;4;410;355;394;632;40;6;646;35706;4;318;313;564;534;39;7;989;22599;4;1056;459;32;8;485;11139;4;534;464;30;9;379;12469;4;419;372;30
22.06.20;19:05:00;1;1014;7941;0;2;1952;18744;4;2062;393;34;3;1150;12252;4;1226;451;34;4;1384;17539;5;1442;229;35;5;1080;46670;4;528;453;395;635;40;6;815;35653;4;440;420;569;540;39;7;1290;22517;4;1369;473;32;8;642;11099;4;698;468;30;9;561;12438;4;610;427;30
22.06.20;19:00:00;1;1053;7851;0;2;2019;18583;4;2130;398;33;3;1178;12157;4;1253;456;33;4;1487;17424;5;1549;233;35;5;1359;46578;4;681;571;403;648;40;6;1019;35584;4;511;494;576;548;39;7;1152;22411;4;1227;443;32;8;438;11046;4;477;368;24;9;594;12392;4;647;507;30
22.06.20;18:55:00;1;405;7779;0;2;1023;18415;4;1095;394;32;3;641;12059;4;701;489;33;4;821;17301;5;856;231;35;5;1494;46464;4;750;641;393;638;40;6;1122;35498;4;585;554;566;542;39;7;1017;22316;4;1085;452;32;8;490;11000;4;539;446;30;9;540;12342;4;598;508;30
22.06.20;18:50:00;1;272;7745;0;2;998;18330;4;1068;389;32;3;635;12005;4;699;494;33;4;833;17232;5;868;231;35;5;1617;46337;4;818;691;399;640;40;6;1216;35402;4;653;615;566;548;39;7;1157;22230;4;1231;453;32;8;563;10958;4;612;443;30;9;631;12297;4;690;514;30
22.06.20;18:45:00;1;1170;7723;0;2;988;18246;4;1059;392;32;3;627;11952;4;690;497;33;4;846;17162;5;881;234;35;5;1615;46203;4;820;691;396;636;40;6;1215;35301;4;636;613;569;550;39;7;902;22129;4;959;455;32;8;434;10910;4;482;463;30;9;491;12243;4;545;498;30
22.06.20;18:40:00;1;1364;7604;0;2;942;18163;4;1005;389;32;3;588;11900;4;648;506;33;4;772;17092;5;804;232;35;5;1529;46069;4;776;656;404;636;41;6;1161;35200;4;593;568;568;545;40;7;827;22054;4;893;448;32;8;406;10873;4;447;466;30;9;463;12202;4;513;501;30
22.06.20;18:35:00;1;1032;7480;0;2;694;18084;4;752;384;32;3;436;11850;4;492;483;33;4;579;17027;5;604;229;35;5;1239;45943;4;605;527;403;631;41;6;941;35104;4;496;476;566;542;40;7;641;21985;4;698;452;32;8;306;10840;4;348;460;30;9;357;12163;4;403;492;30
22.06.20;18:30:00;1;1073;7343;0;2;547;18026;4;602;384;32;3;342;11814;4;393;483;33;4;457;16979;5;476;225;35;5;1058;45841;4;511;453;394;636;41;6;795;35026;4;394;373;561;535;40;7;521;21931;4;581;461;32;8;248;10814;4;290;453;30;9;289;12133;4;333;501;30
22.06.20;18:25:00;1;218;7220;0;2;553;17980;4;608;388;32;3;344;11785;4;396;484;33;4;473;16940;5;493;231;36;5;1141;45752;4;560;482;405;635;41;6;864;34960;4;471;456;569;537;40;7;568;21888;4;613;453;32;8;254;10793;4;301;470;30;9;304;12109;4;349;495;30
22.06.20;18:20:00;1;646;7201;0;2;495;17934;4;548;381;32;3;309;11756;4;358;479;33;4;425;16901;5;443;227;36;5;1048;45657;4;508;446;389;625;41;6;796;34888;4;440;419;557;532;40;7;500;21840;4;554;458;32;8;233;10772;4;274;458;30;9;273;12084;4;317;489;30
22.06.20;18:15:00;1;1444;7118;0;2;398;17893;4;450;382;32;3;248;11731;4;297;484;33;4;343;16865;5;357;225;36;5;877;45571;4;416;371;387;625;41;6;658;34823;4;333;329;549;538;40;7;415;21799;4;458;460;33;8;183;10753;4;226;459;30;9;225;12061;4;266;491;31
22.06.20;18:10:00;1;626;7004;0;2;346;17859;4;396;379;33;3;213;11710;4;262;476;33;4;296;16837;5;309;223;37;5;772;45498;4;360;326;396;618;41;6;577;34768;4;296;292;565;530;40;7;288;21764;4;328;353;26;8;162;10737;4;201;434;30;9;197;12042;4;234;474;31
22.06.20;18:05:00;1;255;6959;0;2;341;17831;4;391;374;33;3;208;11692;4;256;485;34;4;283;16812;5;295;222;37;5;772;45434;4;359;324;386;620;42;6;573;34720;4;292;286;565;533;40;7;368;21733;4;413;447;33;8;166;10724;4;202;431;30;9;197;12026;4;235;475;31
22.06.20;18:00:00;1;474;6937;0;2;372;17802;4;423;379;34;3;230;11675;4;276;487;34;4;320;16788;5;333;223;37;5;846;45370;4;402;355;389;615;42;6;632;34673;4;318;310;563;534;40;7;404;21703;4;459;438;33;8;185;10710;4;228;437;30;9;219;12009;4;260;494;32
22.06.20;17:55:00;1;391;6897;0;2;476;17771;4;532;381;35;3;294;11655;4;344;477;35;4;416;16762;5;433;224;38;5;1053;45298;4;514;446;395;630;42;6;793;34619;4;412;408;553;538;41;7;534;21669;4;580;446;34;8;242;10694;4;285;454;30;9;281;11991;4;326;485;32
22.06.20;17:50:00;1;2044;6867;0;2;568;17732;4;625;382;35;3;354;11631;4;407;484;35;4;498;16727;5;519;224;38;5;1224;45209;4;595;523;390;638;42;6;933;34552;4;492;467;559;541;41;7;631;21625;4;685;445;34;8;286;10674;4;333;466;31;9;341;11968;4;388;501;32
22.06.20;17:45:00;1;1648;6760;0;2;542;17684;4;600;376;36;3;338;11602;4;391;481;35;4;470;16686;5;490;227;39;5;1154;45107;4;557;488;395;628;43;6;878;34474;4;453;441;558;538;41;7;603;21572;4;653;444;34;8;275;10651;4;329;448;31;9;323;11939;4;370;491;33
22.06.20;17:40:00;1;2055;6629;0;2;548;17639;4;608;379;37;3;345;11573;4;396;475;36;4;477;16647;5;497;226;39;5;1154;45011;4;560;488;392;626;43;6;876;34401;4;449;433;555;536;41;7;624;21522;4;674;446;34;8;289;10628;4;334;430;31;9;330;11912;4;377;496;33
22.06.20;17:35:00;1;1066;6515;0;2;606;17593;4;665;370;38;3;379;11545;4;431;468;36;4;514;16607;5;535;222;40;5;1245;44915;4;619;526;385;617;43;6;943;34328;4;486;469;545;520;41;7;725;21471;4;778;428;35;8;340;10604;4;380;424;31;9;382;11885;4;429;477;34
22.06.20;17:30:00;1;1833;6410;0;2;848;17543;4;914;368;39;3;533;11513;4;590;483;37;4;724;16564;5;754;218;40;5;1711;44810;4;875;739;382;620;44;6;1295;34249;4;648;645;543;527;42;7;964;21410;4;1035;437;35;8;458;10575;4;506;446;31;9;514;11853;4;569;485;34
22.06.20;17:25:00;1;2277;6250;0;2;1058;17473;4;1135;371;40;3;673;11469;4;739;476;38;4;905;16504;5;943;222;41;5;2087;44663;4;1082;904;388;618;44;6;1582;34137;4;812;765;544;522;42;7;1181;21330;4;1254;438;35;8;577;10537;4;623;440;31;9;633;11811;4;692;490;35
22.06.20;17:20:00;1;2332;6056;0;2;1226;17385;4;1307;367;41;3;783;11413;4;849;468;38;4;1032;16429;5;1075;215;41;5;2299;44488;4;1198;1006;383;616;44;6;1745;34005;4;897;884;542;521;42;7;1303;21231;4;1381;440;36;8;637;10489;4;688;427;31;9;704;11758;4;765;483;36
22.06.20;17:15:00;1;2251;5863;0;2;1605;17283;4;1703;369;42;3;1032;11348;4;1106;463;39;4;1354;16343;5;1410;218;42;5;2797;44293;4;1481;1226;385;622;44;6;2105;33857;4;1107;1076;535;515;42;7;1639;21122;4;1731;430;36;8;802;10436;4;856;427;31;9;894;11699;4;962;479;36
22.06.20;17:10:00;1;850;5675;0;2;1689;17149;4;1790;358;44;3;1083;11262;4;1161;457;39;4;1399;16231;5;1457;216;43;5;2874;44059;4;1532;1256;382;614;44;6;2195;33680;4;1123;1077;534;515;42;7;1715;20987;4;1809;427;36;8;840;10370;4;898;422;31;9;933;11626;4;1006;477;37
22.06.20;17:05:00;1;337;5626;0;2;4139;17008;4;4360;354;45;3;2652;11171;4;2789;449;41;4;3450;16113;5;3594;214;43;5;6118;43814;4;3361;2729;381;622;43;6;4644;33494;4;2412;2310;542;516;41;7;4282;20843;4;4492;428;35;8;2118;10299;4;2225;423;31;9;2380;11547;4;2514;467;38
22.06.20;17:00:00;1;305;5597;0;2;4191;16676;4;4412;363;43;3;2759;10958;4;2900;459;39;4;3632;15836;5;3783;218;41;5;6406;43300;4;3522;2856;387;635;43;6;4757;33112;4;2481;2364;547;528;41;7;4432;20504;4;4637;426;34;8;2235;10131;4;2345;434;31;9;2500;11357;4;2642;485;37
22.06.20;16:55:00;1;290;5569;0;2;3926;16316;4;4133;378;40;3;2512;10722;4;2645;455;38;4;3341;15523;5;3480;226;39;5;6004;42751;4;3285;2679;392;641;42;6;4634;32699;4;2413;2320;568;541;41;7;4101;20121;4;4293;451;34;8;2077;9938;4;2183;438;31;9;2341;11142;4;2479;494;35
22.06.20;16:50:00;1;300;5544;0;2;2838;15984;4;2992;386;38;3;1862;10509;4;1973;476;36;4;2358;15241;5;2456;226;38;5;4383;42244;4;2368;1933;401;648;42;6;3524;32313;4;1848;1757;561;548;40;7;3210;19775;4;3365;452;34;8;1511;9763;4;1599;443;30;9;1689;10946;4;1797;505;34
22.06.20;16:45:00;1;283;5518;0;2;1991;15735;4;2094;378;36;3;1284;10345;4;1369;485;36;4;1690;15035;5;1760;230;38;5;3312;41874;4;1772;1455;401;644;42;6;2567;32029;4;1356;1302;568;547;40;7;2112;19496;4;2224;458;34;8;1052;9631;4;1114;455;30;9;1172;10800;4;1257;502;33
22.06.20;16:40:00;1;320;5494;0;2;1210;15567;4;1287;379;36;3;778;10237;4;845;486;35;4;997;14893;5;1039;226;38;5;1983;41605;4;1016;854;393;645;42;6;1518;31823;4;774;745;553;537;41;7;1293;19318;4;1364;454;34;8;633;9543;4;687;450;30;9;706;10702;4;771;501;33
22.06.20;16:35:00;1;1993;5467;0;2;799;15466;4;862;376;36;3;503;10172;4;562;488;35;4;647;14810;5;674;225;38;5;1383;41447;4;684;593;389;625;43;6;1047;31701;4;536;511;551;527;41;7;842;19211;4;902;442;34;8;403;9491;4;452;446;31;9;450;10643;4;501;491;33
22.06.20;16:30:00;1;2387;5281;0;2;680;15399;4;746;379;36;3;432;10130;4;485;463;36;4;559;14755;5;582;223;38;5;1250;41333;4;611;529;386;615;43;6;945;31615;4;506;489;549;521;41;7;741;19140;4;800;441;34;8;351;9456;4;399;440;31;9;391;10604;4;439;488;33
22.06.20;16:25:00;1;2262;5084;0;2;672;15343;4;734;371;37;3;424;10094;4;477;468;36;4;553;14709;5;576;224;39;5;1298;41229;4;637;553;380;623;43;6;974;31537;4;495;485;540;522;41;7;759;19078;4;818;440;34;8;353;9427;4;404;428;31;9;400;10572;4;449;485;33
22.06.20;16:20:00;1;681;4895;0;2;716;15287;4;780;369;38;3;454;10058;4;508;471;37;4;595;14663;5;620;224;39;5;1433;41120;4;712;613;380;624;44;6;1077;31455;4;546;530;537;522;41;7;838;19015;4;904;435;34;8;393;9398;4;443;422;31;9;446;10539;4;496;475;34
22.06.20;16:15:00;1;334;4868;0;2;763;15227;4;824;358;40;3;480;10021;4;535;459;37;4;650;14613;5;677;215;40;5;1596;41000;4;805;683;381;617;44;6;1192;31364;4;627;605;531;510;41;7;908;18945;4;970;431;35;8;432;9365;4;478;435;31;9;486;10501;4;537;480;34
22.06.20;16:10:00;1;426;4840;0;2;1086;15164;4;1159;354;42;3;686;9981;4;749;451;39;4;943;14559;5;982;215;41;5;2249;40865;4;1174;980;381;609;43;6;1680;31264;4;844;821;533;510;41;7;1256;18870;4;1333;430;35;8;606;9329;4;659;427;31;9;675;10461;4;734;474;36
22.06.20;16:05:00;1;806;4799;0;2;4885;15074;4;5146;361;43;3;3227;9924;4;3390;466;39;4;4458;14481;5;4644;217;41;5;8231;40642;4;4560;3674;390;644;42;6;6381;31105;4;3337;3173;562;543;40;7;4125;18766;4;4333;432;34;8;2263;9279;4;2369;422;31;9;2353;10405;4;2496;492;36
22.06.20;16:00:00;1;386;4743;0;2;3516;14665;4;3708;383;40;3;2427;9655;4;2556;473;38;4;3164;14110;5;3296;227;39;5;5963;39956;4;3246;2663;405;647;42;6;4817;30586;4;2515;2404;557;559;40;7;4358;18437;4;4576;462;34;8;2116;9100;4;2224;456;30;9;2364;10219;4;2506;517;35
22.06.20;15:55:00;1;354;4710;0;2;2598;14364;4;2737;383;36;3;1747;9447;4;1852;491;35;4;2235;13841;5;2328;234;37;5;4510;39425;4;2458;1987;408;673;42;6;3498;30186;4;1826;1733;584;555;40;7;3551;18066;4;3728;463;33;8;1802;8923;4;1893;457;30;9;1784;10018;4;1897;514;33
22.06.20;15:50:00;1;959;4681;0;2;1404;14138;4;1493;390;36;3;905;9294;4;978;494;35;4;1193;13646;5;1243;230;37;5;2491;39068;4;1309;1084;402;662;42;6;1917;29904;4;1005;968;573;548;40;7;1450;17758;4;1537;459;33;8;715;8767;4;773;458;30;9;802;9867;4;871;502;33
22.06.20;15:45:00;1;1304;4602;0;2;1141;14020;4;1216;380;36;3;726;9218;4;792;489;35;4;954;13545;5;993;232;37;5;2071;38865;4;1064;894;403;643;42;6;1575;29748;4;827;787;565;548;40;7;1212;17636;4;1290;451;34;8;590;8707;4;640;451;30;9;660;9799;4;721;505;33
22.06.20;15:40:00;1;326;4501;0;2;1116;13925;4;1191;379;36;3;710;9157;4;775;487;35;4;945;13466;5;984;225;37;5;2100;38693;4;1088;907;394;631;42;6;1605;29617;4;835;819;561;543;40;7;1230;17534;4;1313;454;34;8;599;8658;4;654;442;30;9;674;9744;4;735;499;33
22.06.20;15:35:00;1;283;4476;0;2;1078;13831;4;1150;377;37;3;684;9098;4;748;485;36;4;910;13386;5;948;222;37;5;2066;38518;4;1069;898;388;628;43;6;1584;29483;4;817;785;557;538;40;7;1185;17432;4;1259;446;34;8;580;8608;4;625;442;30;9;643;9688;4;704;493;33
22.06.20;15:30:00;1;241;4451;0;2;1031;13742;4;1107;381;37;3;657;9041;4;721;487;36;4;872;13311;5;908;222;38;5;2061;38346;4;1054;893;395;635;43;6;1583;29351;4;828;794;553;533;41;7;1167;17333;4;1232;445;34;8;572;8560;4;617;442;30;9;630;9634;4;690;486;34
22.06.20;15:25:00;1;475;4429;0;2;1171;13656;4;1252;378;38;3;746;8986;4;813;484;36;4;1006;13238;5;1048;224;38;5;2408;38172;4;1257;1051;390;622;43;6;1834;29218;4;948;907;553;540;41;7;1360;17235;4;1430;438;34;8;649;8512;4;698;422;30;9;731;9582;4;792;495;34